sat.trackr.live / text

‹ back to catalog

STARLINK-31465

NORAD 59012 · 2024-036Q

PAYLOAD ACTIVE UNKNOWN

§ Identity

Operator
Country
US
Launch date
2024-02-23
Launch site
AFWTR
Launch vehicle
Mass (kg)
RCS (m²)

Purposes: comms

External: N2YO · Heavens-Above · Gunter

§ Orbital elements

Epoch: 2026-05-25T04:55:58.034784Z

Period
94.11 min
Inclination
53.1608°
Eccentricity
0.0001204
Mean motion
15.30166728 rev/d
Perigee alt
474.5 km
Apogee alt
476.1 km
Semi-major
6,853.5 km
B*
-5.7129e-5
RAAN
83.0363°
Arg perigee
97.9017°
Mean anomaly
262.2121°
Rev number
12,703

§ Raw data

STARLINK-314651 59012U 24036Q   26145.20553281 -.00002049  00000+0 -57129-4 0  99902 59012  53.1608  83.0363 0001204  97.9017 262.2121 15.30166728127033

JSON: /api/v1/satellites/59012 · /tle

For live sub-satellite position, see the globe view (requires WebGL).

§ Visibility from observer

Set your observer location to see the next 7 days of passes ≥ 10°. The values pass through the URL so the page stays shareable.

No JS? Fill the form by hand. The geolocation button needs JavaScript.